Regional Weather Roundup
Issued by NWS Sioux Falls, SD

Home | Current Version | Previous Version | Graphics & Text | Print | Product List | Glossary Off
Versions: 1 2 3 4 5 6 7 8 9 10 11 12 13 14 15 16 17 18 19 20 21 22 23 24 25 26 27 28 29 30 31 32 33 34 35 36 37 38 39 40 41 42 43 44 45 46 47 48 49 50

221
ASUS43 KFSD 220310
RWRFSD

WEATHER ROUNDUP FOR SE SOUTH DAKOTA/SW MINNESOTA/NW IOWA
NATIONAL WEATHER SERVICE SIOUX FALLS SD
1000 PM CDT SAT APR 21 2018

NOTE: "FAIR" INDICATES FEW OR NO CLOUDS BELOW 12,000 FEET WITH NO
SIGNIFICANT WEATHER AND OR OBSTRUCTIONS TO VISIBILITY.


SDZ038>040-050-052>070-220400-
SOUTHEAST SOUTH DAKOTA

CITY           SKY/WX    TMP DP  RH WIND       PRES   REMARKS
BROOKINGS      CLEAR     39  32  76 SE7         N/A
CHAMBERLAIN    PTCLDY    42  40  93 CALM      30.27R
HURON          CLEAR     42  35  76 SE7       30.28S
MADISON        FAIR      39  39 100 SE8       30.29S
MITCHELL       PTCLDY    40  35  83 SE7       30.29R
SIOUX FALLS    CLOUDY    43  34  70 E8        30.30S
WINNER         CLOUDY    41  35  79 SE5       30.26S
YANKTON        CLOUDY    47  38  71 E7        30.28S
$$

MNZ071-072-080-081-089-090-097-098-220400-
SOUTHWEST MINNESOTA

CITY           SKY/WX    TMP DP  RH WIND       PRES   REMARKS
FAIRMONT       CLEAR     38  34  85 E3        30.35R
JACKSON        CLOUDY    37  32  81 E8        30.34S
LUVERNE        CLOUDY    39  32  75 CALM      30.32R
MARSHALL       CLOUDY    40  31  70 S9        30.32F
MONTEVIDEO     CLOUDY    41  36  81 S3        30.33F
PIPESTONE      CLEAR    N/A N/A N/A SE7       30.31R
REDWOOD FALLS  CLOUDY    44  35  70 CALM      30.33S
TRACY          CLOUDY    39  33  80 S6        30.32S
WINDOM         CLOUDY    37  21  52 E5        30.33S
WORTHINGTON    CLOUDY    37  34  89 E3        30.32S
$$

IAZ001>003-012>014-020>022-031-032-NEZ013-014-SDZ071-220400-
NORTHWEST IOWA

CITY           SKY/WX    TMP DP  RH WIND       PRES   REMARKS
CHEROKEE       CLOUDY    43  37  79 E12       30.30F
DENISON        CLOUDY    48  30  49 E7        30.30R
ESTHERVILLE    CLOUDY    35  31  85 NE9       30.33R WCI  28
LE MARS        CLOUDY    46  36  66 E12       30.29S
ORANGE CITY    CLOUDY    46  37  71 E6        30.30R
SHELDON        CLOUDY    43  36  75 E9        30.29S
SIOUX CITY     CLOUDY    48  38  68 NE8       30.27S
SPENCER        CLOUDY    40  33  76 E8        30.32R
STORM LAKE     CLOUDY    43  37  81 NE12      30.29S
$$

ABBREVIATIONS USED IN REMARKS
   TC - TEMPERATURE IN CELSIUS
  WCI - WIND CHILL INDEX
   HX - HEAT INDEX
  VSB - VISIBILITY





USA.gov is the U.S. government's official web portal to all federal, state and local government web resources and services.